Location: Hopkins Observatory
(42.6965°N, 73.1843°W)
Time: 01:11:34
(UTC-05:00)

UOSAT-12 - Visible Passes

Search period start: 22 February 2017 00:00
Search period end: 04 March 2017 00:00
Orbit: 610 x 644 km, 64.6° (Epoch: 21 February)

Date Brightness Start Highest point End Pass type
(mag) Time Alt. Az. Time Alt. Az. Time Alt. Az.
22 Feb 9.7 06:04:27 10° N 06:07:03 15° NE 06:09:38 10° ENE visible
25 Feb 9.7 05:23:41 10° N 05:26:37 16° NE 05:29:31 10° ENE visible
26 Feb 9.1 05:42:53 10° NNW 05:46:52 28° NE 05:50:50 10° ESE visible
27 Feb 10.0 04:24:27 10° NNE 04:25:45 11° NNE 04:27:05 10° NE visible
28 Feb 9.7 04:42:58 10° N 04:46:10 18° NE 04:49:22 10° E visible
01 Mar 8.9 05:02:14 10° NNW 05:06:23 31° NE 05:10:31 10° ESE visible
02 Mar 10.0 03:43:27 10° N 03:45:21 12° NNE 03:47:16 10° ENE visible
02 Mar 7.7 05:21:48 10° NNW 05:26:24 61° NE 05:30:58 10° SE visible
03 Mar 9.6 04:02:16 10° N 04:05:43 20° NE 04:09:10 10° E visible
03 Mar 7.2 05:41:39 10° NW 05:46:14 65° WSW 05:50:48 10° SSE visible
